Regional Weather Roundup
Issued by NWS

Home | Current Version | Previous Version | Graphics & Text | Print | Product List | Glossary On
Versions: 1 2 3 4 5 6 7 8 9 10 11 12 13 14 15 16 17 18 19 20 21 22 23 24 25 26 27 28 29 30 31 32 33 34 35 36 37 38 39 40 41 42 43 44 45 46 47 48 49 50
000
ASUS45 KABQ 060110
RWRNM
NEW MEXICO REGIONAL WEATHER ROUNDUP
NATIONAL WEATHER SERVICE ALBUQUERQUE NM
700 PM MDT THU MAY 05 2016

NOTE: "FAIR" MEANS FEW OR NO CLOUDS BELOW 12,000 FEET AGL WITH NO
       SIGNIFICANT WEATHER OR OBSTRUCTIONS TO VISION.

      THIS PRODUCT IS RELEASED AS TWO VERSIONS.  ONE VERSION NEAR
      THE TOP OF THE HOUR CONTAINING PRELIMINARY DATA FROM ALBUQUERQUE
      AND OTHER STATIONS.  A FINAL VERSION WITH ADDITIONAL DATA IS
      ISSUED ABOUT 10 MINUTES AFTER THE HOUR.

NMZ501-503-504-510>518-060200-
NORTHWEST PLATEAU/NORTHCENTRAL MOUNTAINS

CITY           SKY/WX    TMP DP  RH WIND       PRES   REMARKS
FARMINGTON     FAIR      79  21  11 SE12      29.91F
LOS ALAMOS     FAIR      71  18  13 S8        30.13S
SANTA FE       FAIR      76  21  12 S15       30.05F
TAOS           CLOUDY    72  25  17 S10       30.11F
ANGEL FIRE     FAIR      63  23  21 S16       30.21F

$$
NMZ402-403-502-505>509-060200-
WESTCENTRAL MOUNTAINS/SOUTHWEST MOUNTAINS

CITY           SKY/WX    TMP DP  RH WIND       PRES   REMARKS
GALLUP         LGT RAIN  70  34  26 E10       30.01R
GRANTS         FAIR      74  28  18 SE20G25   30.04F
SILVER CITY      N/A     79  30  17 S18G37    29.98F

$$
NMZ407-409-411-412-060200-
SOUTHERN DESERTS

CITY           SKY/WX    TMP DP  RH WIND       PRES   REMARKS
LORDSBURG      FAIR      86  21   9 SW20G31   29.86F
DEMING         FAIR      86  32  14 SE10G20   29.89F
LAS CRUCES     FAIR      85  29  13 SE15      29.95S
HOLLOMAN AFB   FAIR      85  24  10 SE17      29.92S
ALAMOGORDO     FAIR      84  25  11 S18       29.95F
T OR C         FAIR      83  29  14 S21       29.95F

$$
NMZ519>523-060200-
CENTRAL VALLEYS/CENTRAL HIGHLANDS

CITY           SKY/WX    TMP DP  RH WIND       PRES   REMARKS
ALBUQUERQUE    PTSUNNY   81  24  12 S17       29.99F
DOUBLE EAGLE   PTSUNNY   77  27  15 S16       30.03F
MORIARTY ARPT  FAIR      75  19  12 S12       30.08S
CLINES CORNERS FAIR      69  20  15 S17G25    30.13S
BELEN          FAIR      80  22  12 SE14      29.99S
SOCORRO        FAIR      81  27  13 SE20      29.97S

$$
NMZ524>526-539-540-060200-
SOUTHCENTRAL MOUNTAINS

CITY           SKY/WX    TMP DP  RH WIND       PRES   REMARKS
RUIDOSO          N/A     70  19  14 SE16G25   30.17R

$$
NMZ527>531-060200-
NORTHEAST HIGHLANDS/NORTHEAST PLAINS

CITY           SKY/WX    TMP DP  RH WIND       PRES   REMARKS
LAS VEGAS      FAIR      68  21  16 SE17G29   30.12F
RATON          FAIR      72  27  18 S14       30.07S
CLAYTON        FAIR      74  34  23 S12       30.03F

$$
NMZ532>537-060200-
EASTCENTRAL PLAINS

CITY           SKY/WX    TMP DP  RH WIND       PRES   REMARKS
TUCUMCARI      FAIR      82  18   9 SW9       29.98F
CANNON AFB     FAIR      80  22  11 S15       30.03S
CLOVIS AIRPORT FAIR      77  25  14 S13       30.05S

$$
NMZ028-029-538-060200-
SOUTHEAST PLAINS

CITY           SKY/WX    TMP DP  RH WIND       PRES   REMARKS
ROSWELL        FAIR      83  21  10 SE17      29.98F
ARTESIA        FAIR      82  27  13 SE21      29.98S
CARLSBAD       FAIR      84  21  10 SE13      29.97F
HOBBS          FAIR      81  23  12 S14       30.05S


$$




USA.gov is the U.S. government's official web portal to all federal, state and local government web resources and services.